Wetterdaten: Donnerstag, 02.07.2015
Datum Zeit Temp. A. Feuchte A. Luftdruck Regen Wind Richtung Richtung Sonnenschein ET UV Solar Taupunkt Windchill Windben Empfang
02.07.2015 00:00 19,0 C 72 % 1019,0 hPa 0,0 l/m 0,0 km/h (0 Bft) NO 54 0 min 0,000 mm 0,0 UV-I 0 W/m 13,8 C 19,0 C 0,0 km/h (0 Bft) 0,00 %
02.07.2015 00:05 18,9 C 73 % 1019,0 hPa 0,0 l/m 0,0 km/h (0 Bft) NO 45 0 min 0,000 mm 0,0 UV-I 0 W/m 13,9 C 18,9 C 0,0 km/h (0 Bft) 0,00 %
02.07.2015 00:10 18,8 C 73 % 1019,2 hPa 0,0 l/m 0,0 km/h (0 Bft) O-SO 104 0 min 0,000 mm 0,0 UV-I 0 W/m 13,9 C 18,8 C 0,0 km/h (0 Bft) 0,00 %
02.07.2015 00:15 18,8 C 73 % 1018,9 hPa 0,0 l/m 0,0 km/h (0 Bft) O-NO 69 0 min 0,000 mm 0,0 UV-I 0 W/m 13,9 C 18,8 C 0,0 km/h (0 Bft) 0,00 %
02.07.2015 00:20 18,7 C 74 % 1019,3 hPa 0,0 l/m 0,0 km/h (0 Bft) O-NO 57 0 min 0,000 mm 0,0 UV-I 0 W/m 14,0 C 18,7 C 0,0 km/h (0 Bft) 0,00 %
02.07.2015 00:25 18,7 C 74 % 1019,3 hPa 0,0 l/m 0,0 km/h (0 Bft) O-NO 61 0 min 0,000 mm 0,0 UV-I 0 W/m 14,0 C 18,7 C 0,0 km/h (0 Bft) 0,00 %
02.07.2015 00:30 18,6 C 73 % 1019,3 hPa 0,0 l/m 0,0 km/h (0 Bft) NO 53 0 min 0,000 mm 0,0 UV-I 0 W/m 13,7 C 18,6 C 0,0 km/h (0 Bft) 0,00 %
02.07.2015 00:35 18,5 C 74 % 1019,4 hPa 0,0 l/m 0,0 km/h (0 Bft) NO 47 0 min 0,000 mm 0,0 UV-I 0 W/m 13,8 C 18,5 C 0,0 km/h (0 Bft) 0,00 %
02.07.2015 00:40 18,4 C 74 % 1019,4 hPa 0,0 l/m 0,0 km/h (0 Bft) NO 46 0 min 0,000 mm 0,0 UV-I 0 W/m 13,7 C 18,4 C 0,0 km/h (0 Bft) 0,00 %
02.07.2015 00:45 18,3 C 75 % 1019,3 hPa 0,0 l/m 0,0 km/h (0 Bft) NO 56 0 min 0,000 mm 0,0 UV-I 0 W/m 13,8 C 18,3 C 0,0 km/h (0 Bft) 0,00 %
02.07.2015 00:50 18,1 C 75 % 1019,5 hPa 0,0 l/m 0,0 km/h (0 Bft) NO 48 0 min 0,000 mm 0,0 UV-I 0 W/m 13,6 C 18,1 C 0,0 km/h (0 Bft) 0,00 %
02.07.2015 00:55 18,0 C 75 % 1019,4 hPa 0,0 l/m 0,0 km/h (0 Bft) NO 52 0 min 0,000 mm 0,0 UV-I 0 W/m 13,5 C 18,0 C 0,0 km/h (0 Bft) 0,00 %
02.07.2015 01:00 18,0 C 76 % 1019,7 hPa 0,0 l/m 0,0 km/h (0 Bft) NO 47 0 min 0,000 mm 0,0 UV-I 0 W/m 13,7 C 18,0 C 0,0 km/h (0 Bft) 0,00 %
02.07.2015 01:05 17,9 C 76 % 1019,6 hPa 0,0 l/m 0,0 km/h (0 Bft) NO 45 0 min 0,000 mm 0,0 UV-I 0 W/m 13,6 C 17,9 C 0,0 km/h (0 Bft) 0,00 %
02.07.2015 01:10 17,8 C 77 % 1019,6 hPa 0,0 l/m 0,0 km/h (0 Bft) O 94 0 min 0,000 mm 0,0 UV-I 0 W/m 13,7 C 17,8 C 0,0 km/h (0 Bft) 0,00 %
02.07.2015 01:15 17,8 C 76 % 1019,7 hPa 0,0 l/m 0,0 km/h (0 Bft) O-NO 74 0 min 0,000 mm 0,0 UV-I 0 W/m 13,5 C 17,8 C 0,0 km/h (0 Bft) 0,00 %
02.07.2015 01:20 17,8 C 76 % 1019,6 hPa 0,0 l/m 0,0 km/h (0 Bft) NO 51 0 min 0,000 mm 0,0 UV-I 0 W/m 13,5 C 17,8 C 0,0 km/h (0 Bft) 0,00 %
02.07.2015 01:25 17,8 C 76 % 1019,5 hPa 0,0 l/m 0,0 km/h (0 Bft) NO 55 0 min 0,000 mm 0,0 UV-I 0 W/m 13,5 C 17,8 C 0,0 km/h (0 Bft) 0,00 %
02.07.2015 01:30 17,7 C 76 % 1019,5 hPa 0,0 l/m 0,0 km/h (0 Bft) NO 45 0 min 0,000 mm 0,0 UV-I 0 W/m 13,4 C 17,7 C 0,0 km/h (0 Bft) 0,00 %
02.07.2015 01:35 17,6 C 76 % 1019,9 hPa 0,0 l/m 0,0 km/h (0 Bft) O-NO 76 0 min 0,000 mm 0,0 UV-I 0 W/m 13,3 C 17,6 C 0,0 km/h (0 Bft) 0,00 %
02.07.2015 01:40 17,6 C 76 % 1019,9 hPa 0,0 l/m 0,0 km/h (0 Bft) O-NO 59 0 min 0,000 mm 0,0 UV-I 0 W/m 13,3 C 17,6 C 0,0 km/h (0 Bft) 0,00 %
02.07.2015 01:45 17,6 C 76 % 1019,9 hPa 0,0 l/m 0,0 km/h (0 Bft) O-NO 67 0 min 0,000 mm 0,0 UV-I 0 W/m 13,3 C 17,6 C 0,0 km/h (0 Bft) 0,00 %
02.07.2015 01:50 17,5 C 76 % 1019,8 hPa 0,0 l/m 0,0 km/h (0 Bft) NO 53 0 min 0,000 mm 0,0 UV-I 0 W/m 13,2 C 17,5 C 0,0 km/h (0 Bft) 0,00 %
02.07.2015 01:55 17,5 C 77 % 1020,0 hPa 0,0 l/m 0,0 km/h (0 Bft) NO 43 0 min 0,000 mm 0,0 UV-I 0 W/m 13,4 C 17,5 C 0,0 km/h (0 Bft) 0,00 %
02.07.2015 02:00 17,4 C 77 % 1019,9 hPa 0,0 l/m 0,0 km/h (0 Bft) O 86 0 min 0,000 mm 0,0 UV-I 0 W/m 13,3 C 17,4 C 0,0 km/h (0 Bft) 0,00 %
02.07.2015 02:05 17,3 C 77 % 1020,0 hPa 0,0 l/m 0,0 km/h (0 Bft) O-NO 61 0 min 0,000 mm 0,0 UV-I 0 W/m 13,2 C 17,3 C 0,0 km/h (0 Bft) 0,00 %
02.07.2015 02:10 17,2 C 77 % 1019,9 hPa 0,0 l/m 0,0 km/h (0 Bft) O-NO 67 0 min 0,000 mm 0,0 UV-I 0 W/m 13,1 C 17,2 C 0,0 km/h (0 Bft) 0,00 %
02.07.2015 02:15 17,2 C 77 % 1019,9 hPa 0,0 l/m 0,0 km/h (0 Bft) O-SO 103 0 min 0,000 mm 0,0 UV-I 0 W/m 13,1 C 17,2 C 0,0 km/h (0 Bft) 0,00 %
02.07.2015 02:20 17,2 C 77 % 1019,9 hPa 0,0 l/m 0,0 km/h (0 Bft) O 95 0 min 0,000 mm 0,0 UV-I 0 W/m 13,1 C 17,2 C 0,0 km/h (0 Bft) 0,00 %
02.07.2015 02:25 17,2 C 77 % 1019,8 hPa 0,0 l/m 0,0 km/h (0 Bft) NO 47 0 min 0,000 mm 0,0 UV-I 0 W/m 13,1 C 17,2 C 0,0 km/h (0 Bft) 0,00 %
02.07.2015 02:30 17,3 C 77 % 1019,8 hPa 0,0 l/m 0,0 km/h (0 Bft) O-NO 58 0 min 0,000 mm 0,0 UV-I 0 W/m 13,2 C 17,3 C 0,0 km/h (0 Bft) 0,00 %
02.07.2015 02:35 17,3 C 77 % 1019,9 hPa 0,0 l/m 0,0 km/h (0 Bft) NO 40 0 min 0,000 mm 0,0 UV-I 0 W/m 13,2 C 17,3 C 0,0 km/h (0 Bft) 0,00 %
02.07.2015 02:40 17,3 C 77 % 1019,9 hPa 0,0 l/m 0,4 km/h (0 Bft) O 100 0 min 0,000 mm 0,0 UV-I 0 W/m 13,2 C 17,3 C 4,0 km/h (1 Bft) 0,00 %
02.07.2015 02:45 17,2 C 77 % 1019,9 hPa 0,0 l/m 0,0 km/h (0 Bft) O-SO 113 0 min 0,000 mm 0,0 UV-I 0 W/m 13,1 C 17,2 C 0,0 km/h (0 Bft) 0,00 %
02.07.2015 02:50 17,2 C 77 % 1019,8 hPa 0,0 l/m 0,0 km/h (0 Bft) O-NO 68 0 min 0,000 mm 0,0 UV-I 0 W/m 13,1 C 17,2 C 0,0 km/h (0 Bft) 0,00 %
02.07.2015 02:55 17,2 C 77 % 1019,9 hPa 0,0 l/m 0,0 km/h (0 Bft) O-NO 60 0 min 0,000 mm 0,0 UV-I 0 W/m 13,1 C 17,2 C 0,0 km/h (0 Bft) 0,00 %
02.07.2015 03:00 17,1 C 77 % 1020,1 hPa 0,0 l/m 0,0 km/h (0 Bft) O 79 0 min 0,000 mm 0,0 UV-I 0 W/m 13,0 C 17,1 C 0,0 km/h (0 Bft) 0,00 %
02.07.2015 03:05 17,0 C 77 % 1020,1 hPa 0,0 l/m 0,0 km/h (0 Bft) NO 50 0 min 0,000 mm 0,0 UV-I 0 W/m 12,9 C 17,0 C 0,0 km/h (0 Bft) 0,00 %
02.07.2015 03:10 16,9 C 78 % 1020,1 hPa 0,0 l/m 0,0 km/h (0 Bft) O 79 0 min 0,000 mm 0,0 UV-I 0 W/m 13,0 C 16,9 C 0,0 km/h (0 Bft) 0,00 %
02.07.2015 03:15 16,9 C 78 % 1020,2 hPa 0,0 l/m 0,0 km/h (0 Bft) O 86 0 min 0,000 mm 0,0 UV-I 0 W/m 13,0 C 16,9 C 0,0 km/h (0 Bft) 0,00 %
02.07.2015 03:20 16,8 C 78 % 1020,3 hPa 0,0 l/m 0,0 km/h (0 Bft) O 97 0 min 0,000 mm 0,0 UV-I 0 W/m 12,9 C 16,8 C 0,0 km/h (0 Bft) 0,00 %
02.07.2015 03:25 16,8 C 78 % 1020,1 hPa 0,0 l/m 0,0 km/h (0 Bft) O-NO 65 0 min 0,000 mm 0,0 UV-I 0 W/m 12,9 C 16,8 C 0,0 km/h (0 Bft) 0,00 %
02.07.2015 03:30 16,8 C 78 % 1020,3 hPa 0,0 l/m 0,0 km/h (0 Bft) O-NO 64 0 min 0,000 mm 0,0 UV-I 0 W/m 12,9 C 16,8 C 0,0 km/h (0 Bft) 0,00 %
02.07.2015 03:35 16,7 C 78 % 1020,3 hPa 0,0 l/m 0,0 km/h (0 Bft) O-NO 60 0 min 0,000 mm 0,0 UV-I 0 W/m 12,8 C 16,7 C 0,0 km/h (0 Bft) 0,00 %
02.07.2015 03:40 16,7 C 78 % 1020,2 hPa 0,0 l/m 0,0 km/h (0 Bft) O-NO 58 0 min 0,000 mm 0,0 UV-I 0 W/m 12,8 C 16,7 C 0,0 km/h (0 Bft) 0,00 %
02.07.2015 03:45 16,6 C 79 % 1020,2 hPa 0,0 l/m 0,0 km/h (0 Bft) NO 53 0 min 0,000 mm 0,0 UV-I 0 W/m 12,9 C 16,6 C 0,0 km/h (0 Bft) 0,00 %
02.07.2015 03:50 16,4 C 79 % 1020,3 hPa 0,0 l/m 0,0 km/h (0 Bft) O-NO 61 0 min 0,000 mm 0,0 UV-I 0 W/m 12,7 C 16,4 C 0,0 km/h (0 Bft) 0,00 %
02.07.2015 03:55 16,2 C 79 % 1020,4 hPa 0,0 l/m 0,0 km/h (0 Bft) O-NO 65 0 min 0,000 mm 0,0 UV-I 0 W/m 12,6 C 16,2 C 0,0 km/h (0 Bft) 0,00 %
02.07.2015 04:00 16,1 C 79 % 1020,2 hPa 0,0 l/m 0,0 km/h (0 Bft) O-NO 59 0 min 0,000 mm 0,0 UV-I 0 W/m 12,5 C 16,1 C 0,0 km/h (0 Bft) 0,00 %
02.07.2015 04:05 16,0 C 80 % 1020,3 hPa 0,0 l/m 0,0 km/h (0 Bft) O-NO 59 0 min 0,000 mm 0,0 UV-I 0 W/m 12,5 C 16,0 C 0,0 km/h (0 Bft) 0,00 %
02.07.2015 04:10 16,0 C 81 % 1020,3 hPa 0,0 l/m 0,0 km/h (0 Bft) O-NO 59 0 min 0,000 mm 0,0 UV-I 0 W/m 12,7 C 16,0 C 0,0 km/h (0 Bft) 0,00 %
02.07.2015 04:15 15,9 C 81 % 1020,4 hPa 0,0 l/m 0,0 km/h (0 Bft) O-NO 59 0 min 0,000 mm 0,0 UV-I 0 W/m 12,6 C 15,9 C 0,0 km/h (0 Bft) 0,00 %
02.07.2015 04:20 15,8 C 81 % 1020,4 hPa 0,0 l/m 0,0 km/h (0 Bft) O-NO 59 0 min 0,000 mm 0,0 UV-I 0 W/m 12,5 C 15,8 C 0,0 km/h (0 Bft) 0,00 %
02.07.2015 04:25 15,7 C 82 % 1020,4 hPa 0,0 l/m 0,4 km/h (0 Bft) O-NO 78 0 min 0,000 mm 0,0 UV-I 0 W/m 12,6 C 15,7 C 4,0 km/h (1 Bft) 0,00 %
02.07.2015 04:30 15,6 C 82 % 1020,6 hPa 0,0 l/m 0,0 km/h (0 Bft) O-NO 60 0 min 0,000 mm 0,0 UV-I 0 W/m 12,5 C 15,6 C 0,0 km/h (0 Bft) 0,00 %
02.07.2015 04:35 15,7 C 81 % 1020,5 hPa 0,0 l/m 0,0 km/h (0 Bft) O-NO 66 0 min 0,000 mm 0,0 UV-I 0 W/m 12,4 C 15,7 C 0,0 km/h (0 Bft) 0,00 %
02.07.2015 04:40 15,7 C 81 % 1020,4 hPa 0,0 l/m 0,0 km/h (0 Bft) NO 43 0 min 0,000 mm 0,0 UV-I 0 W/m 12,4 C 15,7 C 0,0 km/h (0 Bft) 0,00 %
02.07.2015 04:45 15,8 C 81 % 1020,8 hPa 0,0 l/m 0,0 km/h (0 Bft) O-NO 65 0 min 0,000 mm 0,0 UV-I 0 W/m 12,5 C 15,8 C 0,0 km/h (0 Bft) 0,00 %
02.07.2015 04:50 15,7 C 81 % 1020,5 hPa 0,0 l/m 0,0 km/h (0 Bft) NO 51 0 min 0,000 mm 0,0 UV-I 0 W/m 12,4 C 15,7 C 0,0 km/h (0 Bft) 0,00 %
02.07.2015 04:55 15,6 C 81 % 1020,6 hPa 0,0 l/m 0,0 km/h (0 Bft) O-SO 118 0 min 0,000 mm 0,0 UV-I 0 W/m 12,3 C 15,6 C 0,0 km/h (0 Bft) 0,00 %
02.07.2015 05:00 15,5 C 82 % 1020,6 hPa 0,0 l/m 0,0 km/h (0 Bft) O-NO 59 0 min 0,000 mm 0,0 UV-I 0 W/m 12,4 C 15,5 C 0,0 km/h (0 Bft) 0,00 %
02.07.2015 05:05 15,4 C 82 % 1020,6 hPa 0,0 l/m 0,0 km/h (0 Bft) NO 53 0 min 0,000 mm 0,0 UV-I 0 W/m 12,3 C 15,4 C 0,0 km/h (0 Bft) 0,00 %
02.07.2015 05:10 15,4 C 82 % 1020,6 hPa 0,0 l/m 0,0 km/h (0 Bft) NO 56 0 min 0,000 mm 0,0 UV-I 0 W/m 12,3 C 15,4 C 0,0 km/h (0 Bft) 0,00 %
02.07.2015 05:15 15,4 C 82 % 1020,5 hPa 0,0 l/m 0,0 km/h (0 Bft) O-NO 64 0 min 0,000 mm 0,0 UV-I 3 W/m 12,3 C 15,4 C 0,0 km/h (0 Bft) 0,00 %
02.07.2015 05:20 15,4 C 81 % 1020,7 hPa 0,0 l/m 0,0 km/h (0 Bft) O-NO 62 0 min 0,000 mm 0,0 UV-I 7 W/m 12,2 C 15,4 C 0,0 km/h (0 Bft) 0,00 %
02.07.2015 05:25 15,4 C 81 % 1020,8 hPa 0,0 l/m 0,0 km/h (0 Bft) O-NO 62 5 min 0,000 mm 0,0 UV-I 15 W/m 12,2 C 15,4 C 0,0 km/h (0 Bft) 0,00 %
02.07.2015 05:30 15,4 C 81 % 1020,6 hPa 0,0 l/m 0,0 km/h (0 Bft) O-NO 57 0 min 0,000 mm 0,0 UV-I 19 W/m 12,2 C 15,4 C 0,0 km/h (0 Bft) 0,00 %
02.07.2015 05:35 15,4 C 81 % 1020,9 hPa 0,0 l/m 0,0 km/h (0 Bft) NO 56 5 min 0,000 mm 0,0 UV-I 29 W/m 12,2 C 15,4 C 0,0 km/h (0 Bft) 0,00 %
02.07.2015 05:40 15,4 C 81 % 1020,8 hPa 0,0 l/m 0,0 km/h (0 Bft) NO 51 5 min 0,000 mm 0,0 UV-I 35 W/m 12,2 C 15,4 C 0,0 km/h (0 Bft) 0,00 %
02.07.2015 05:45 15,5 C 81 % 1020,9 hPa 0,0 l/m 0,0 km/h (0 Bft) O-NO 59 5 min 0,000 mm 0,0 UV-I 49 W/m 12,3 C 15,5 C 0,0 km/h (0 Bft) 0,00 %
02.07.2015 05:50 15,5 C 81 % 1020,8 hPa 0,0 l/m 0,0 km/h (0 Bft) NO 55 5 min 0,000 mm 0,0 UV-I 111 W/m 12,3 C 15,5 C 0,0 km/h (0 Bft) 0,00 %
02.07.2015 05:55 15,7 C 79 % 1020,9 hPa 0,0 l/m 0,0 km/h (0 Bft) O-NO 57 5 min 0,000 mm 0,0 UV-I 132 W/m 12,1 C 15,7 C 0,0 km/h (0 Bft) 0,00 %
02.07.2015 06:00 16,4 C 77 % 1020,8 hPa 0,0 l/m 0,0 km/h (0 Bft) NO 56 5 min 0,000 mm 0,0 UV-I 155 W/m 12,4 C 16,4 C 0,0 km/h (0 Bft) 0,00 %
02.07.2015 06:05 17,2 C 74 % 1020,8 hPa 0,0 l/m 0,0 km/h (0 Bft) NO 56 5 min 0,000 mm 0,0 UV-I 176 W/m 12,5 C 17,2 C 0,0 km/h (0 Bft) 0,00 %
02.07.2015 06:10 17,8 C 72 % 1020,8 hPa 0,0 l/m 0,0 km/h (0 Bft) NO 49 5 min 0,000 mm 0,0 UV-I 196 W/m 12,7 C 17,8 C 0,0 km/h (0 Bft) 0,00 %
02.07.2015 06:15 18,3 C 71 % 1020,6 hPa 0,0 l/m 0,0 km/h (0 Bft) NO 52 5 min 0,000 mm 0,0 UV-I 217 W/m 12,9 C 18,3 C 0,0 km/h (0 Bft) 0,00 %
02.07.2015 06:20 18,8 C 68 % 1020,4 hPa 0,0 l/m 0,0 km/h (0 Bft) NO 49 5 min 0,000 mm 0,0 UV-I 240 W/m 12,8 C 18,8 C 0,0 km/h (0 Bft) 0,00 %
02.07.2015 06:25 19,2 C 67 % 1020,5 hPa 0,0 l/m 0,0 km/h (0 Bft) NO 51 5 min 0,000 mm 1,0 UV-I 260 W/m 12,9 C 19,2 C 0,0 km/h (0 Bft) 0,00 %
02.07.2015 06:30 19,5 C 66 % 1020,5 hPa 0,0 l/m 0,0 km/h (0 Bft) NO 49 5 min 0,000 mm 1,0 UV-I 279 W/m 13,0 C 19,5 C 0,0 km/h (0 Bft) 0,00 %
02.07.2015 06:35 20,0 C 63 % 1020,5 hPa 0,0 l/m 0,0 km/h (0 Bft) NO 36 5 min 0,000 mm 1,0 UV-I 296 W/m 12,7 C 20,0 C 0,0 km/h (0 Bft) 0,00 %
02.07.2015 06:40 20,4 C 63 % 1020,6 hPa 0,0 l/m 0,0 km/h (0 Bft) O-NO 62 5 min 0,000 mm 1,0 UV-I 315 W/m 13,1 C 20,4 C 0,0 km/h (0 Bft) 0,00 %
02.07.2015 06:45 20,8 C 61 % 1020,4 hPa 0,0 l/m 0,0 km/h (0 Bft) O-NO 57 5 min 0,000 mm 1,0 UV-I 332 W/m 13,0 C 20,8 C 0,0 km/h (0 Bft) 0,00 %
02.07.2015 06:50 21,1 C 59 % 1020,4 hPa 0,0 l/m 0,0 km/h (0 Bft) NO 34 5 min 0,000 mm 1,0 UV-I 348 W/m 12,8 C 21,1 C 0,0 km/h (0 Bft) 0,00 %
02.07.2015 06:55 21,1 C 61 % 1020,7 hPa 0,0 l/m 0,0 km/h (0 Bft) O-NO 74 5 min 0,000 mm 1,0 UV-I 361 W/m 13,3 C 21,1 C 0,0 km/h (0 Bft) 0,00 %
02.07.2015 07:00 20,8 C 59 % 1020,5 hPa 0,0 l/m 0,4 km/h (0 Bft) NO 56 5 min 0,000 mm 1,0 UV-I 373 W/m 12,5 C 20,8 C 4,0 km/h (1 Bft) 0,00 %
02.07.2015 07:05 20,8 C 60 % 1020,7 hPa 0,0 l/m 0,0 km/h (0 Bft) NO 56 5 min 0,000 mm 1,0 UV-I 383 W/m 12,7 C 20,8 C 0,0 km/h (0 Bft) 0,00 %
02.07.2015 07:10 20,8 C 61 % 1020,6 hPa 0,0 l/m 0,0 km/h (0 Bft) N-NO 31 5 min 0,000 mm 1,0 UV-I 393 W/m 13,0 C 20,8 C 0,0 km/h (0 Bft) 0,00 %
02.07.2015 07:15 20,7 C 61 % 1020,5 hPa 0,0 l/m 0,7 km/h (0 Bft) O-NO 64 5 min 0,000 mm 1,0 UV-I 403 W/m 12,9 C 20,7 C 4,0 km/h (1 Bft) 0,00 %
02.07.2015 07:20 20,8 C 60 % 1020,7 hPa 0,0 l/m 1,8 km/h (1 Bft) SO 133 5 min 0,000 mm 1,0 UV-I 412 W/m 12,7 C 20,8 C 4,0 km/h (1 Bft) 0,00 %
02.07.2015 07:25 20,9 C 58 % 1020,5 hPa 0,0 l/m 4,3 km/h (1 Bft) O-SO 116 5 min 0,000 mm 1,0 UV-I 419 W/m 12,3 C 20,9 C 7,9 km/h (2 Bft) 0,00 %
02.07.2015 07:30 21,0 C 58 % 1020,4 hPa 0,0 l/m 0,4 km/h (0 Bft) NO 36 5 min 0,000 mm 1,0 UV-I 424 W/m 12,4 C 21,0 C 4,0 km/h (1 Bft) 0,00 %
02.07.2015 07:35 21,1 C 59 % 1020,7 hPa 0,0 l/m 4,3 km/h (1 Bft) O-SO 110 5 min 0,000 mm 1,0 UV-I 430 W/m 12,8 C 21,1 C 7,9 km/h (2 Bft) 0,00 %
02.07.2015 07:40 21,2 C 58 % 1020,7 hPa 0,0 l/m 3,2 km/h (1 Bft) NO 50 5 min 0,000 mm 1,0 UV-I 436 W/m 12,6 C 21,2 C 4,0 km/h (1 Bft) 0,00 %
02.07.2015 07:45 21,3 C 57 % 1020,8 hPa 0,0 l/m 4,7 km/h (1 Bft) SO 136 5 min 0,000 mm 1,0 UV-I 438 W/m 12,4 C 21,3 C 7,9 km/h (2 Bft) 0,00 %
02.07.2015 07:50 21,4 C 57 % 1020,8 hPa 0,0 l/m 1,4 km/h (1 Bft) SO 130 5 min 0,000 mm 1,0 UV-I 446 W/m 12,5 C 21,4 C 4,0 km/h (1 Bft) 0,00 %
02.07.2015 07:55 21,7 C 55 % 1020,8 hPa 0,0 l/m 3,2 km/h (1 Bft) O-NO 74 5 min 0,000 mm 1,0 UV-I 449 W/m 12,3 C 21,7 C 4,0 km/h (1 Bft) 0,00 %
02.07.2015 08:00 22,0 C 56 % 1020,7 hPa 0,0 l/m 0,4 km/h (0 Bft) SO 124 5 min 0,000 mm 1,0 UV-I 456 W/m 12,8 C 22,0 C 4,0 km/h (1 Bft) 0,00 %
02.07.2015 08:05 22,1 C 53 % 1020,5 hPa 0,0 l/m 5,4 km/h (1 Bft) O-SO 115 5 min 0,000 mm 1,0 UV-I 460 W/m 12,1 C 22,1 C 7,9 km/h (2 Bft) 0,00 %
02.07.2015 08:10 22,0 C 55 % 1020,7 hPa 0,0 l/m 4,0 km/h (1 Bft) O-NO 78 5 min 0,000 mm 1,0 UV-I 461 W/m 12,5 C 22,0 C 4,0 km/h (1 Bft) 0,00 %
02.07.2015 08:15 21,9 C 54 % 1020,9 hPa 0,0 l/m 0,0 km/h (0 Bft) O 82 5 min 0,000 mm 1,0 UV-I 469 W/m 12,2 C 21,9 C 0,0 km/h (0 Bft) 0,00 %
02.07.2015 08:20 22,1 C 53 % 1020,8 hPa 0,0 l/m 1,4 km/h (1 Bft) O-NO 58 5 min 0,000 mm 1,0 UV-I 475 W/m 12,1 C 22,1 C 4,0 km/h (1 Bft) 0,00 %
02.07.2015 08:25 22,5 C 53 % 1020,9 hPa 0,0 l/m 4,3 km/h (1 Bft) N-NO 27 5 min 0,000 mm 2,0 UV-I 482 W/m 12,4 C 22,5 C 7,9 km/h (2 Bft) 0,00 %
02.07.2015 08:30 22,5 C 52 % 1020,6 hPa 0,0 l/m 1,4 km/h (1 Bft) N-NO 20 5 min 0,000 mm 2,0 UV-I 485 W/m 12,1 C 22,5 C 4,0 km/h (1 Bft) 0,00 %
02.07.2015 08:35 22,5 C 53 % 1021,0 hPa 0,0 l/m 4,7 km/h (1 Bft) O-SO 107 5 min 0,000 mm 2,0 UV-I 460 W/m 12,4 C 22,5 C 7,9 km/h (2 Bft) 0,00 %
02.07.2015 08:40 22,4 C 53 % 1020,9 hPa 0,0 l/m 1,4 km/h (1 Bft) NO 41 5 min 0,000 mm 2,0 UV-I 500 W/m 12,3 C 22,4 C 4,0 km/h (1 Bft) 0,00 %
02.07.2015 08:45 22,5 C 52 % 1020,8 hPa 0,0 l/m 7,9 km/h (2 Bft) O-SO 112 5 min 0,000 mm 2,0 UV-I 505 W/m 12,1 C 22,0 C 11,9 km/h (2 Bft) 0,00 %
02.07.2015 08:50 22,8 C 52 % 1020,8 hPa 0,0 l/m 1,4 km/h (1 Bft) O 79 5 min 0,000 mm 2,0 UV-I 515 W/m 12,4 C 22,8 C 4,0 km/h (1 Bft) 0,00 %
02.07.2015 08:55 23,0 C 52 % 1020,6 hPa 0,0 l/m 7,2 km/h (2 Bft) O 101 5 min 0,000 mm 2,0 UV-I 497 W/m 12,6 C 22,7 C 11,9 km/h (2 Bft) 0,00 %
02.07.2015 09:00 23,2 C 51 % 1020,7 hPa 0,0 l/m 7,9 km/h (2 Bft) O-SO 110 5 min 0,000 mm 2,0 UV-I 531 W/m 12,5 C 22,7 C 11,9 km/h (2 Bft) 0,00 %
02.07.2015 09:05 23,3 C 52 % 1020,6 hPa 0,0 l/m 0,4 km/h (0 Bft) N 9 5 min 0,000 mm 2,0 UV-I 539 W/m 12,9 C 23,3 C 4,0 km/h (1 Bft) 0,00 %
02.07.2015 09:10 23,3 C 52 % 1020,8 hPa 0,0 l/m 0,4 km/h (0 Bft) N 6 5 min 0,000 mm 2,0 UV-I 556 W/m 12,9 C 23,3 C 4,0 km/h (1 Bft) 0,00 %
02.07.2015 09:15 23,3 C 51 % 1020,8 hPa 0,0 l/m 4,7 km/h (1 Bft) SW 217 5 min 0,000 mm 2,0 UV-I 554 W/m 12,6 C 23,3 C 7,9 km/h (2 Bft) 0,00 %
02.07.2015 09:20 23,4 C 52 % 1020,8 hPa 0,0 l/m 2,9 km/h (1 Bft) O 89 5 min 0,000 mm 2,0 UV-I 564 W/m 13,0 C 23,4 C 11,9 km/h (2 Bft) 0,00 %
02.07.2015 09:25 23,5 C 51 % 1020,8 hPa 0,0 l/m 3,2 km/h (1 Bft) SO 131 5 min 0,000 mm 2,0 UV-I 574 W/m 12,8 C 23,5 C 7,9 km/h (2 Bft) 0,00 %
02.07.2015 09:30 23,6 C 51 % 1020,6 hPa 0,0 l/m 13,0 km/h (3 Bft) O-SO 103 5 min 0,000 mm 2,0 UV-I 575 W/m 12,9 C 22,0 C 15,8 km/h (3 Bft) 0,00 %
02.07.2015 09:35 23,6 C 52 % 1020,6 hPa 0,0 l/m 4,3 km/h (1 Bft) O-NO 59 5 min 0,000 mm 2,0 UV-I 586 W/m 13,2 C 23,6 C 11,9 km/h (2 Bft) 0,00 %
02.07.2015 09:40 23,7 C 50 % 1020,6 hPa 0,0 l/m 5,4 km/h (1 Bft) O-NO 64 5 min 0,000 mm 2,0 UV-I 601 W/m 12,6 C 23,7 C 7,9 km/h (2 Bft) 0,00 %
02.07.2015 09:45 24,1 C 51 % 1020,7 hPa 0,0 l/m 3,2 km/h (1 Bft) O-SO 115 5 min 0,000 mm 2,0 UV-I 611 W/m 13,3 C 24,1 C 7,9 km/h (2 Bft) 0,00 %
02.07.2015 09:50 24,3 C 49 % 1020,5 hPa 0,0 l/m 3,2 km/h (1 Bft) O-NO 68 5 min 0,000 mm 3,0 UV-I 619 W/m 12,9 C 24,3 C 4,0 km/h (1 Bft) 0,00 %
02.07.2015 09:55 24,4 C 50 % 1020,6 hPa 0,0 l/m 6,8 km/h (2 Bft) O-SO 103 5 min 0,000 mm 3,0 UV-I 625 W/m 13,3 C 24,3 C 7,9 km/h (2 Bft) 0,00 %
02.07.2015 10:00 24,4 C 50 % 1020,5 hPa 0,0 l/m 8,3 km/h (2 Bft) O-SO 108 5 min 0,000 mm 3,0 UV-I 638 W/m 13,3 C 23,9 C 11,9 km/h (2 Bft) 0,00 %
02.07.2015 10:05 24,4 C 49 % 1020,5 hPa 0,0 l/m 3,2 km/h (1 Bft) O-NO 73 5 min 0,000 mm 3,0 UV-I 645 W/m 13,0 C 24,4 C 7,9 km/h (2 Bft) 0,00 %
02.07.2015 10:10 24,6 C 50 % 1020,4 hPa 0,0 l/m 3,2 km/h (1 Bft) O-NO 77 5 min 0,000 mm 3,0 UV-I 661 W/m 13,5 C 24,6 C 7,9 km/h (2 Bft) 0,00 %
02.07.2015 10:15 24,8 C 48 % 1020,5 hPa 0,0 l/m 2,2 km/h (1 Bft) O 100 5 min 0,000 mm 3,0 UV-I 666 W/m 13,0 C 24,8 C 4,0 km/h (1 Bft) 0,00 %
02.07.2015 10:20 24,9 C 50 % 1020,8 hPa 0,0 l/m 9,7 km/h (2 Bft) O-SO 119 5 min 0,000 mm 3,0 UV-I 675 W/m 13,7 C 24,1 C 11,9 km/h (2 Bft) 0,00 %
02.07.2015 10:25 25,0 C 49 % 1020,3 hPa 0,0 l/m 4,0 km/h (1 Bft) O 95 5 min 0,000 mm 3,0 UV-I 690 W/m 13,5 C 25,0 C 7,9 km/h (2 Bft) 0,00 %
02.07.2015 10:30 25,1 C 48 % 1020,3 hPa 0,0 l/m 8,3 km/h (2 Bft) O 88 5 min 0,000 mm 3,0 UV-I 693 W/m 13,3 C 24,6 C 11,9 km/h (2 Bft) 0,00 %
02.07.2015 10:35 25,2 C 49 % 1020,4 hPa 0,0 l/m 6,8 km/h (2 Bft) O 96 5 min 0,000 mm 3,0 UV-I 705 W/m 13,7 C 25,1 C 7,9 km/h (2 Bft) 0,00 %
02.07.2015 10:40 25,1 C 49 % 1020,5 hPa 0,0 l/m 7,2 km/h (2 Bft) O 84 5 min 0,000 mm 3,0 UV-I 713 W/m 13,6 C 24,9 C 11,9 km/h (2 Bft) 0,00 %
02.07.2015 10:45 25,4 C 48 % 1020,5 hPa 0,0 l/m 7,2 km/h (2 Bft) O-NO 71 5 min 0,000 mm 4,0 UV-I 723 W/m 13,6 C 25,2 C 11,9 km/h (2 Bft) 0,00 %
02.07.2015 10:50 25,6 C 48 % 1020,4 hPa 0,0 l/m 4,7 km/h (1 Bft) S 178 5 min 0,000 mm 4,0 UV-I 729 W/m 13,8 C 25,6 C 7,9 km/h (2 Bft) 0,00 %
02.07.2015 10:55 25,6 C 47 % 1020,4 hPa 0,0 l/m 1,8 km/h (1 Bft) O 88 5 min 0,000 mm 4,0 UV-I 730 W/m 13,4 C 25,6 C 4,0 km/h (1 Bft) 0,00 %
02.07.2015 11:00 25,5 C 47 % 1020,6 hPa 0,0 l/m 5,4 km/h (1 Bft) SO 128 5 min 0,000 mm 4,0 UV-I 733 W/m 13,3 C 25,5 C 7,9 km/h (2 Bft) 0,00 %
02.07.2015 11:05 25,5 C 49 % 1020,3 hPa 0,0 l/m 5,8 km/h (2 Bft) O-SO 121 5 min 0,000 mm 4,0 UV-I 745 W/m 14,0 C 25,5 C 7,9 km/h (2 Bft) 0,00 %
02.07.2015 11:10 25,5 C 50 % 1020,6 hPa 0,0 l/m 9,7 km/h (2 Bft) O-NO 57 5 min 0,000 mm 4,0 UV-I 747 W/m 14,3 C 24,8 C 11,9 km/h (2 Bft) 0,00 %
02.07.2015 11:15 25,7 C 47 % 1020,3 hPa 0,0 l/m 4,7 km/h (1 Bft) O-SO 110 5 min 0,000 mm 4,0 UV-I 757 W/m 13,5 C 25,7 C 7,9 km/h (2 Bft) 0,00 %
02.07.2015 11:20 25,9 C 49 % 1020,4 hPa 0,0 l/m 6,8 km/h (2 Bft) O 79 5 min 0,000 mm 4,0 UV-I 762 W/m 14,4 C 25,8 C 11,9 km/h (2 Bft) 0,00 %
02.07.2015 11:25 25,9 C 49 % 1020,3 hPa 0,0 l/m 4,3 km/h (1 Bft) SO 140 5 min 0,000 mm 4,0 UV-I 769 W/m 14,4 C 25,9 C 7,9 km/h (2 Bft) 0,00 %
02.07.2015 11:30 25,8 C 47 % 1020,3 hPa 0,0 l/m 5,8 km/h (2 Bft) O-SO 106 5 min 0,000 mm 4,0 UV-I 773 W/m 13,6 C 25,8 C 7,9 km/h (2 Bft) 0,00 %
02.07.2015 11:35 25,9 C 48 % 1020,6 hPa 0,0 l/m 4,3 km/h (1 Bft) SO 124 5 min 0,000 mm 5,0 UV-I 781 W/m 14,0 C 25,9 C 7,9 km/h (2 Bft) 0,00 %
02.07.2015 11:40 26,0 C 48 % 1020,4 hPa 0,0 l/m 7,2 km/h (2 Bft) O-SO 123 5 min 0,000 mm 5,0 UV-I 790 W/m 14,1 C 25,8 C 11,9 km/h (2 Bft) 0,00 %
02.07.2015 11:45 26,2 C 45 % 1020,3 hPa 0,0 l/m 8,3 km/h (2 Bft) O-SO 111 5 min 0,000 mm 5,0 UV-I 795 W/m 13,3 C 25,8 C 11,9 km/h (2 Bft) 0,00 %
02.07.2015 11:50 26,2 C 46 % 1020,3 hPa 0,0 l/m 4,0 km/h (1 Bft) O-NO 69 5 min 0,000 mm 5,0 UV-I 795 W/m 13,6 C 26,2 C 4,0 km/h (1 Bft) 0,00 %
02.07.2015 11:55 26,1 C 46 % 1020,4 hPa 0,0 l/m 10,4 km/h (2 Bft) O-SO 119 5 min 0,000 mm 5,0 UV-I 797 W/m 13,6 C 25,3 C 15,8 km/h (3 Bft) 0,00 %
02.07.2015 12:00 26,1 C 48 % 1020,4 hPa 0,0 l/m 7,2 km/h (2 Bft) O-SO 102 5 min 0,000 mm 5,0 UV-I 810 W/m 14,2 C 25,9 C 11,9 km/h (2 Bft) 0,00 %
02.07.2015 12:05 26,2 C 46 % 1020,3 hPa 0,0 l/m 10,4 km/h (2 Bft) O-SO 107 5 min 0,000 mm 5,0 UV-I 810 W/m 13,6 C 25,4 C 11,9 km/h (2 Bft) 0,00 %
02.07.2015 12:10 26,4 C 46 % 1020,2 hPa 0,0 l/m 7,9 km/h (2 Bft) SO 124 5 min 0,000 mm 5,0 UV-I 813 W/m 13,8 C 26,1 C 11,9 km/h (2 Bft) 0,00 %
02.07.2015 12:15 26,4 C 46 % 1020,2 hPa 0,0 l/m 4,3 km/h (1 Bft) O 86 5 min 0,000 mm 5,0 UV-I 818 W/m 13,8 C 26,4 C 7,9 km/h (2 Bft) 0,00 %
02.07.2015 12:20 26,3 C 47 % 1020,2 hPa 0,0 l/m 1,4 km/h (1 Bft) NO 55 5 min 0,000 mm 5,0 UV-I 829 W/m 14,1 C 26,3 C 4,0 km/h (1 Bft) 0,00 %
02.07.2015 12:25 26,4 C 45 % 1020,2 hPa 0,0 l/m 1,8 km/h (1 Bft) S 186 5 min 0,000 mm 5,0 UV-I 832 W/m 13,5 C 26,4 C 4,0 km/h (1 Bft) 0,00 %
02.07.2015 12:30 26,5 C 47 % 1020,2 hPa 0,0 l/m 5,4 km/h (1 Bft) O-SO 105 5 min 0,000 mm 5,0 UV-I 837 W/m 14,3 C 26,5 C 7,9 km/h (2 Bft) 0,00 %
02.07.2015 12:35 26,7 C 47 % 1020,1 hPa 0,0 l/m 7,9 km/h (2 Bft) O-NO 77 5 min 0,000 mm 5,0 UV-I 842 W/m 14,4 C 26,4 C 11,9 km/h (2 Bft) 0,00 %
02.07.2015 12:40 26,6 C 45 % 1020,1 hPa 0,0 l/m 6,5 km/h (2 Bft) SO 134 5 min 0,000 mm 5,0 UV-I 842 W/m 13,7 C 26,6 C 7,9 km/h (2 Bft) 0,00 %
02.07.2015 12:45 26,6 C 47 % 1020,0 hPa 0,0 l/m 0,4 km/h (0 Bft) NO 54 5 min 0,000 mm 6,0 UV-I 849 W/m 14,3 C 26,6 C 4,0 km/h (1 Bft) 0,00 %
02.07.2015 12:50 26,7 C 44 % 1020,0 hPa 0,0 l/m 10,8 km/h (2 Bft) SO 134 5 min 0,000 mm 6,0 UV-I 845 W/m 13,4 C 25,9 C 15,8 km/h (3 Bft) 0,00 %
02.07.2015 12:55 26,7 C 45 % 1020,1 hPa 0,0 l/m 5,8 km/h (2 Bft) O-SO 105 5 min 0,000 mm 6,0 UV-I 847 W/m 13,8 C 26,7 C 7,9 km/h (2 Bft) 0,00 %
02.07.2015 13:00 26,4 C 46 % 1020,1 hPa 0,0 l/m 9,7 km/h (2 Bft) O-NO 74 5 min 0,000 mm 6,0 UV-I 860 W/m 13,8 C 25,8 C 15,8 km/h (3 Bft) 0,00 %
02.07.2015 13:05 26,4 C 48 % 1020,2 hPa 0,0 l/m 0,7 km/h (0 Bft) O-NO 72 5 min 0,000 mm 6,0 UV-I 864 W/m 14,5 C 26,4 C 4,0 km/h (1 Bft) 0,00 %
02.07.2015 13:10 26,6 C 45 % 1020,0 hPa 0,0 l/m 9,7 km/h (2 Bft) SO 133 5 min 0,000 mm 5,0 UV-I 865 W/m 13,7 C 26,0 C 11,9 km/h (2 Bft) 0,00 %
02.07.2015 13:15 26,8 C 47 % 1020,0 hPa 0,0 l/m 1,4 km/h (1 Bft) O 92 5 min 0,000 mm 5,0 UV-I 869 W/m 14,5 C 26,8 C 4,0 km/h (1 Bft) 0,00 %
02.07.2015 13:20 26,8 C 45 % 1019,9 hPa 0,0 l/m 11,9 km/h (2 Bft) NO 52 5 min 0,000 mm 5,0 UV-I 867 W/m 13,9 C 25,9 C 19,8 km/h (3 Bft) 0,00 %
02.07.2015 13:25 26,7 C 46 % 1020,0 hPa 0,0 l/m 11,9 km/h (2 Bft) O-NO 73 5 min 0,000 mm 5,0 UV-I 872 W/m 14,1 C 25,8 C 15,8 km/h (3 Bft) 0,00 %
02.07.2015 13:30 26,6 C 46 % 1019,9 hPa 0,0 l/m 8,3 km/h (2 Bft) SO 143 5 min 0,000 mm 5,0 UV-I 883 W/m 14,0 C 26,2 C 11,9 km/h (2 Bft) 0,00 %
02.07.2015 13:35 26,7 C 47 % 1020,0 hPa 0,0 l/m 5,8 km/h (2 Bft) O 89 5 min 0,000 mm 5,0 UV-I 886 W/m 14,4 C 26,7 C 7,9 km/h (2 Bft) 0,00 %
02.07.2015 13:40 26,9 C 45 % 1019,7 hPa 0,0 l/m 14,4 km/h (3 Bft) O-SO 102 5 min 0,000 mm 5,0 UV-I 884 W/m 13,9 C 25,7 C 19,8 km/h (3 Bft) 0,00 %
02.07.2015 13:45 27,0 C 45 % 1019,7 hPa 0,0 l/m 4,7 km/h (1 Bft) O 98 5 min 0,000 mm 5,0 UV-I 895 W/m 14,0 C 27,0 C 11,9 km/h (2 Bft) 0,00 %
02.07.2015 13:50 27,0 C 46 % 1019,6 hPa 0,0 l/m 8,3 km/h (2 Bft) SO 141 5 min 0,000 mm 5,0 UV-I 898 W/m 14,4 C 26,6 C 11,9 km/h (2 Bft) 0,00 %
02.07.2015 13:55 27,1 C 45 % 1019,6 hPa 0,0 l/m 5,8 km/h (2 Bft) O 87 5 min 0,000 mm 5,0 UV-I 901 W/m 14,1 C 27,1 C 7,9 km/h (2 Bft) 0,00 %
02.07.2015 14:00 27,3 C 45 % 1019,7 hPa 0,0 l/m 6,5 km/h (2 Bft) O 92 5 min 0,000 mm 5,0 UV-I 907 W/m 14,3 C 27,3 C 11,9 km/h (2 Bft) 0,00 %
02.07.2015 14:05 27,3 C 45 % 1019,4 hPa 0,0 l/m 9,4 km/h (2 Bft) O 92 5 min 0,000 mm 5,0 UV-I 913 W/m 14,3 C 26,8 C 15,8 km/h (3 Bft) 0,00 %
02.07.2015 14:10 27,2 C 46 % 1019,6 hPa 0,0 l/m 1,8 km/h (1 Bft) N-NW 348 5 min 0,000 mm 5,0 UV-I 922 W/m 14,6 C 27,2 C 4,0 km/h (1 Bft) 0,00 %
02.07.2015 14:15 27,4 C 46 % 1019,6 hPa 0,0 l/m 2,9 km/h (1 Bft) O 79 5 min 0,000 mm 5,0 UV-I 920 W/m 14,7 C 27,4 C 7,9 km/h (2 Bft) 0,00 %
02.07.2015 14:20 27,7 C 45 % 1019,4 hPa 0,0 l/m 7,2 km/h (2 Bft) SO 133 5 min 0,000 mm 5,0 UV-I 924 W/m 14,7 C 27,6 C 11,9 km/h (2 Bft) 0,00 %
02.07.2015 14:25 27,9 C 44 % 1019,6 hPa 0,0 l/m 12,2 km/h (2 Bft) S-SO 155 5 min 0,000 mm 5,0 UV-I 923 W/m 14,5 C 27,1 C 15,8 km/h (3 Bft) 0,00 %
02.07.2015 14:30 27,8 C 44 % 1019,5 hPa 0,0 l/m 4,0 km/h (1 Bft) O 89 5 min 0,000 mm 5,0 UV-I 925 W/m 14,4 C 27,8 C 7,9 km/h (2 Bft) 0,00 %
02.07.2015 14:35 27,8 C 46 % 1019,4 hPa 0,0 l/m 3,2 km/h (1 Bft) O-NO 72 5 min 0,000 mm 5,0 UV-I 936 W/m 15,1 C 27,8 C 4,0 km/h (1 Bft) 0,00 %
02.07.2015 14:40 27,9 C 43 % 1019,4 hPa 0,0 l/m 7,2 km/h (2 Bft) NO 48 5 min 0,000 mm 5,0 UV-I 931 W/m 14,1 C 27,8 C 11,9 km/h (2 Bft) 0,00 %
02.07.2015 14:45 27,9 C 42 % 1019,3 hPa 0,0 l/m 7,2 km/h (2 Bft) O 90 5 min 0,000 mm 5,0 UV-I 934 W/m 13,8 C 27,8 C 15,8 km/h (3 Bft) 0,00 %
02.07.2015 14:50 28,0 C 44 % 1019,5 hPa 0,0 l/m 5,8 km/h (2 Bft) N-NO 30 5 min 0,000 mm 5,0 UV-I 938 W/m 14,6 C 28,0 C 11,9 km/h (2 Bft) 0,00 %
02.07.2015 14:55 28,0 C 43 % 1019,5 hPa 0,0 l/m 8,3 km/h (2 Bft) O-SO 119 5 min 0,000 mm 5,0 UV-I 933 W/m 14,2 C 27,7 C 11,9 km/h (2 Bft) 0,00 %
02.07.2015 15:00 28,1 C 43 % 1019,3 hPa 0,0 l/m 4,7 km/h (1 Bft) O 82 5 min 0,000 mm 5,0 UV-I 934 W/m 14,3 C 28,1 C 7,9 km/h (2 Bft) 0,00 %
02.07.2015 15:05 28,1 C 43 % 1019,3 hPa 0,0 l/m 6,5 km/h (2 Bft) N 2 5 min 0,000 mm 5,0 UV-I 938 W/m 14,3 C 28,1 C 7,9 km/h (2 Bft) 0,00 %
02.07.2015 15:10 28,0 C 43 % 1019,3 hPa 0,0 l/m 5,8 km/h (2 Bft) O 89 5 min 0,000 mm 5,0 UV-I 941 W/m 14,2 C 28,0 C 7,9 km/h (2 Bft) 0,00 %
02.07.2015 15:15 28,1 C 42 % 1019,0 hPa 0,0 l/m 1,4 km/h (1 Bft) N 350 5 min 0,000 mm 5,0 UV-I 946 W/m 14,0 C 28,1 C 4,0 km/h (1 Bft) 0,00 %
02.07.2015 15:20 28,4 C 43 % 1019,2 hPa 0,0 l/m 2,2 km/h (1 Bft) S-SW 196 5 min 0,000 mm 4,0 UV-I 944 W/m 14,6 C 28,4 C 4,0 km/h (1 Bft) 0,00 %
02.07.2015 15:25 28,6 C 42 % 1019,0 hPa 0,0 l/m 9,7 km/h (2 Bft) O 83 5 min 0,000 mm 4,0 UV-I 934 W/m 14,4 C 28,2 C 11,9 km/h (2 Bft) 0,00 %
02.07.2015 15:30 28,6 C 41 % 1019,1 hPa 0,0 l/m 5,8 km/h (2 Bft) O 94 5 min 0,000 mm 4,0 UV-I 941 W/m 14,0 C 28,6 C 7,9 km/h (2 Bft) 0,00 %
02.07.2015 15:35 28,6 C 42 % 1019,1 hPa 0,0 l/m 8,3 km/h (2 Bft) O-SO 104 5 min 0,000 mm 4,0 UV-I 940 W/m 14,4 C 28,3 C 11,9 km/h (2 Bft) 0,00 %
02.07.2015 15:40 28,5 C 44 % 1018,9 hPa 0,0 l/m 7,2 km/h (2 Bft) O-SO 110 5 min 0,000 mm 4,0 UV-I 937 W/m 15,0 C 28,4 C 11,9 km/h (2 Bft) 0,00 %
02.07.2015 15:45 28,5 C 43 % 1019,0 hPa 0,0 l/m 6,5 km/h (2 Bft) S-SO 148 5 min 0,000 mm 4,0 UV-I 932 W/m 14,7 C 28,5 C 7,9 km/h (2 Bft) 0,00 %
02.07.2015 15:50 28,6 C 41 % 1019,0 hPa 0,0 l/m 5,8 km/h (2 Bft) O 79 5 min 0,000 mm 4,0 UV-I 930 W/m 14,0 C 28,6 C 7,9 km/h (2 Bft) 0,00 %
02.07.2015 15:55 28,6 C 41 % 1018,9 hPa 0,0 l/m 6,8 km/h (2 Bft) O 95 5 min 0,000 mm 4,0 UV-I 928 W/m 14,0 C 28,5 C 7,9 km/h (2 Bft) 0,00 %
02.07.2015 16:00 28,5 C 41 % 1019,0 hPa 0,0 l/m 4,0 km/h (1 Bft) NO 36 5 min 0,000 mm 4,0 UV-I 917 W/m 13,9 C 28,5 C 7,9 km/h (2 Bft) 0,00 %
02.07.2015 16:05 28,5 C 41 % 1019,0 hPa 0,0 l/m 7,9 km/h (2 Bft) O-SO 107 5 min 0,000 mm 4,0 UV-I 918 W/m 13,9 C 28,3 C 11,9 km/h (2 Bft) 0,00 %
02.07.2015 16:10 28,4 C 41 % 1018,9 hPa 0,0 l/m 9,4 km/h (2 Bft) O-NO 77 5 min 0,000 mm 4,0 UV-I 911 W/m 13,9 C 28,0 C 11,9 km/h (2 Bft) 0,00 %
02.07.2015 16:15 28,5 C 42 % 1019,2 hPa 0,0 l/m 4,7 km/h (1 Bft) SO 131 5 min 0,000 mm 4,0 UV-I 906 W/m 14,3 C 28,5 C 7,9 km/h (2 Bft) 0,00 %
02.07.2015 16:20 28,6 C 41 % 1018,9 hPa 0,0 l/m 4,0 km/h (1 Bft) O 92 5 min 0,000 mm 4,0 UV-I 910 W/m 14,0 C 28,6 C 7,9 km/h (2 Bft) 0,00 %
02.07.2015 16:25 28,6 C 41 % 1018,9 hPa 0,0 l/m 4,0 km/h (1 Bft) NO 50 5 min 0,000 mm 3,0 UV-I 908 W/m 14,0 C 28,6 C 7,9 km/h (2 Bft) 0,00 %
02.07.2015 16:30 28,6 C 42 % 1018,8 hPa 0,0 l/m 2,9 km/h (1 Bft) O-NO 73 5 min 0,000 mm 3,0 UV-I 908 W/m 14,4 C 28,6 C 4,0 km/h (1 Bft) 0,00 %
02.07.2015 16:35 28,6 C 42 % 1018,9 hPa 0,0 l/m 5,8 km/h (2 Bft) NO 38 5 min 0,000 mm 3,0 UV-I 899 W/m 14,4 C 28,6 C 7,9 km/h (2 Bft) 0,00 %
02.07.2015 16:40 28,7 C 42 % 1018,9 hPa 0,0 l/m 5,8 km/h (2 Bft) O 91 5 min 0,000 mm 3,0 UV-I 888 W/m 14,5 C 28,7 C 7,9 km/h (2 Bft) 0,00 %
02.07.2015 16:45 28,8 C 41 % 1018,8 hPa 0,0 l/m 11,9 km/h (2 Bft) O 98 5 min 0,000 mm 3,0 UV-I 886 W/m 14,2 C 28,2 C 15,8 km/h (3 Bft) 0,00 %
02.07.2015 16:50 28,8 C 41 % 1018,8 hPa 0,0 l/m 4,7 km/h (1 Bft) SO 137 5 min 0,000 mm 3,0 UV-I 875 W/m 14,2 C 28,8 C 7,9 km/h (2 Bft) 0,00 %
02.07.2015 16:55 28,8 C 42 % 1018,7 hPa 0,0 l/m 0,0 km/h (0 Bft) O-NO 78 5 min 0,000 mm 3,0 UV-I 881 W/m 14,6 C 28,8 C 0,0 km/h (0 Bft) 0,00 %
02.07.2015 17:00 28,8 C 41 % 1018,7 hPa 0,0 l/m 0,4 km/h (0 Bft) NO 48 5 min 0,000 mm 3,0 UV-I 868 W/m 14,2 C 28,8 C 4,0 km/h (1 Bft) 0,00 %
02.07.2015 17:05 28,8 C 41 % 1018,7 hPa 0,0 l/m 5,4 km/h (1 Bft) O 95 5 min 0,000 mm 3,0 UV-I 859 W/m 14,2 C 28,8 C 7,9 km/h (2 Bft) 0,00 %
02.07.2015 17:10 28,7 C 41 % 1018,8 hPa 0,0 l/m 12,2 km/h (2 Bft) S-SO 157 5 min 0,000 mm 2,0 UV-I 858 W/m 14,1 C 28,0 C 15,8 km/h (3 Bft) 0,00 %
02.07.2015 17:15 28,6 C 42 % 1018,6 hPa 0,0 l/m 5,8 km/h (2 Bft) O 100 5 min 0,000 mm 2,0 UV-I 848 W/m 14,4 C 28,6 C 7,9 km/h (2 Bft) 0,00 %
02.07.2015 17:20 28,6 C 42 % 1018,8 hPa 0,0 l/m 0,7 km/h (0 Bft) O-NO 62 5 min 0,000 mm 2,0 UV-I 848 W/m 14,4 C 28,6 C 4,0 km/h (1 Bft) 0,00 %
02.07.2015 17:25 28,7 C 41 % 1018,7 hPa 0,0 l/m 5,4 km/h (1 Bft) SO 128 5 min 0,000 mm 2,0 UV-I 831 W/m 14,1 C 28,7 C 7,9 km/h (2 Bft) 0,00 %
02.07.2015 17:30 28,8 C 41 % 1018,6 hPa 0,0 l/m 3,2 km/h (1 Bft) SO 127 5 min 0,000 mm 2,0 UV-I 825 W/m 14,2 C 28,8 C 4,0 km/h (1 Bft) 0,00 %
02.07.2015 17:35 28,8 C 42 % 1018,5 hPa 0,0 l/m 5,4 km/h (1 Bft) O 96 5 min 0,000 mm 2,0 UV-I 812 W/m 14,6 C 28,8 C 11,9 km/h (2 Bft) 0,00 %
02.07.2015 17:40 28,8 C 41 % 1018,7 hPa 0,0 l/m 8,3 km/h (2 Bft) O-NO 74 5 min 0,000 mm 2,0 UV-I 808 W/m 14,2 C 28,6 C 11,9 km/h (2 Bft) 0,00 %
02.07.2015 17:45 28,7 C 41 % 1018,9 hPa 0,0 l/m 9,0 km/h (2 Bft) SO 125 5 min 0,000 mm 2,0 UV-I 796 W/m 14,1 C 28,4 C 11,9 km/h (2 Bft) 0,00 %
02.07.2015 17:50 28,5 C 41 % 1018,9 hPa 0,0 l/m 1,4 km/h (1 Bft) O 88 5 min 0,000 mm 1,0 UV-I 780 W/m 13,9 C 28,5 C 4,0 km/h (1 Bft) 0,00 %
02.07.2015 17:55 28,5 C 41 % 1019,0 hPa 0,0 l/m 2,2 km/h (1 Bft) O-SO 118 5 min 0,000 mm 1,0 UV-I 766 W/m 13,9 C 28,5 C 4,0 km/h (1 Bft) 0,00 %
02.07.2015 18:00 28,6 C 42 % 1018,8 hPa 0,0 l/m 5,8 km/h (2 Bft) SO 142 5 min 0,000 mm 1,0 UV-I 756 W/m 14,4 C 28,6 C 11,9 km/h (2 Bft) 0,00 %
02.07.2015 18:05 28,6 C 41 % 1018,8 hPa 0,0 l/m 13,0 km/h (3 Bft) O-SO 107 5 min 0,000 mm 1,0 UV-I 744 W/m 14,0 C 27,8 C 15,8 km/h (3 Bft) 0,00 %
02.07.2015 18:10 28,4 C 42 % 1018,8 hPa 0,0 l/m 9,0 km/h (2 Bft) O-NO 77 5 min 0,000 mm 1,0 UV-I 730 W/m 14,2 C 28,0 C 11,9 km/h (2 Bft) 0,00 %
02.07.2015 18:15 28,3 C 43 % 1018,9 hPa 0,0 l/m 9,0 km/h (2 Bft) O-SO 123 5 min 0,000 mm 1,0 UV-I 716 W/m 14,5 C 27,9 C 11,9 km/h (2 Bft) 0,00 %
02.07.2015 18:20 28,4 C 43 % 1018,8 hPa 0,0 l/m 4,3 km/h (1 Bft) O-SO 110 5 min 0,000 mm 1,0 UV-I 705 W/m 14,6 C 28,4 C 7,9 km/h (2 Bft) 0,00 %
02.07.2015 18:25 28,3 C 43 % 1018,8 hPa 0,0 l/m 5,8 km/h (2 Bft) O 89 5 min 0,000 mm 1,0 UV-I 686 W/m 14,5 C 28,3 C 11,9 km/h (2 Bft) 0,00 %
02.07.2015 18:30 28,3 C 42 % 1018,8 hPa 0,0 l/m 5,4 km/h (1 Bft) O 79 5 min 0,000 mm 1,0 UV-I 670 W/m 14,1 C 28,3 C 7,9 km/h (2 Bft) 0,00 %
02.07.2015 18:35 28,4 C 42 % 1018,8 hPa 0,0 l/m 5,4 km/h (1 Bft) O 88 5 min 0,000 mm 1,0 UV-I 655 W/m 14,2 C 28,4 C 7,9 km/h (2 Bft) 0,00 %
02.07.2015 18:40 28,3 C 43 % 1018,9 hPa 0,0 l/m 5,8 km/h (2 Bft) O 89 5 min 0,000 mm 1,0 UV-I 637 W/m 14,5 C 28,3 C 7,9 km/h (2 Bft) 0,00 %
02.07.2015 18:45 28,2 C 43 % 1018,8 hPa 0,0 l/m 1,4 km/h (1 Bft) N 351 5 min 0,000 mm 1,0 UV-I 620 W/m 14,4 C 28,2 C 4,0 km/h (1 Bft) 0,00 %
02.07.2015 18:50 28,0 C 43 % 1018,9 hPa 0,0 l/m 7,9 km/h (2 Bft) O-SO 112 5 min 0,000 mm 1,0 UV-I 600 W/m 14,2 C 27,8 C 11,9 km/h (2 Bft) 0,00 %
02.07.2015 18:55 27,9 C 43 % 1018,9 hPa 0,0 l/m 4,0 km/h (1 Bft) O 90 5 min 0,000 mm 1,0 UV-I 581 W/m 14,1 C 27,9 C 7,9 km/h (2 Bft) 0,00 %
02.07.2015 19:00 27,8 C 44 % 1018,9 hPa 0,0 l/m 5,8 km/h (2 Bft) SO 128 5 min 0,000 mm 1,0 UV-I 563 W/m 14,4 C 27,8 C 7,9 km/h (2 Bft) 0,00 %
02.07.2015 19:05 27,9 C 43 % 1018,9 hPa 0,0 l/m 4,3 km/h (1 Bft) S 184 5 min 0,000 mm 1,0 UV-I 537 W/m 14,1 C 27,9 C 7,9 km/h (2 Bft) 0,00 %
02.07.2015 19:10 27,9 C 44 % 1018,9 hPa 0,0 l/m 0,4 km/h (0 Bft) O-NO 62 5 min 0,000 mm 1,0 UV-I 514 W/m 14,5 C 27,9 C 4,0 km/h (1 Bft) 0,00 %
02.07.2015 19:15 27,9 C 45 % 1019,0 hPa 0,0 l/m 6,5 km/h (2 Bft) O 91 5 min 0,000 mm 1,0 UV-I 487 W/m 14,8 C 27,9 C 7,9 km/h (2 Bft) 0,00 %
02.07.2015 19:20 27,8 C 45 % 1018,9 hPa 0,0 l/m 7,2 km/h (2 Bft) O-SO 113 5 min 0,000 mm 1,0 UV-I 461 W/m 14,8 C 27,7 C 11,9 km/h (2 Bft) 0,00 %
02.07.2015 19:25 27,7 C 45 % 1018,8 hPa 0,0 l/m 2,2 km/h (1 Bft) NO 36 5 min 0,000 mm 1,0 UV-I 439 W/m 14,7 C 27,7 C 4,0 km/h (1 Bft) 0,00 %
02.07.2015 19:30 27,6 C 46 % 1019,1 hPa 0,0 l/m 8,3 km/h (2 Bft) O-SO 117 5 min 0,000 mm 1,0 UV-I 410 W/m 14,9 C 27,3 C 15,8 km/h (3 Bft) 0,00 %
02.07.2015 19:35 27,4 C 46 % 1018,9 hPa 0,0 l/m 0,0 km/h (0 Bft) O-NO 64 5 min 0,000 mm 1,0 UV-I 382 W/m 14,7 C 27,4 C 0,0 km/h (0 Bft) 0,00 %
02.07.2015 19:40 27,4 C 46 % 1019,0 hPa 0,0 l/m 0,0 km/h (0 Bft) O-NO 78 5 min 0,000 mm 1,0 UV-I 354 W/m 14,7 C 27,4 C 0,0 km/h (0 Bft) 0,00 %
02.07.2015 19:45 27,4 C 47 % 1019,3 hPa 0,0 l/m 1,4 km/h (1 Bft) O-NO 65 5 min 0,000 mm 1,0 UV-I 320 W/m 15,1 C 27,4 C 4,0 km/h (1 Bft) 0,00 %
02.07.2015 19:50 27,2 C 47 % 1019,1 hPa 0,0 l/m 2,9 km/h (1 Bft) O-NO 72 5 min 0,000 mm 1,0 UV-I 286 W/m 14,9 C 27,2 C 4,0 km/h (1 Bft) 0,00 %
02.07.2015 19:55 27,0 C 49 % 1019,3 hPa 0,0 l/m 0,4 km/h (0 Bft) O-NO 77 5 min 0,000 mm 0,0 UV-I 251 W/m 15,4 C 27,0 C 4,0 km/h (1 Bft) 0,00 %
02.07.2015 20:00 26,8 C 49 % 1019,1 hPa 0,0 l/m 1,4 km/h (1 Bft) O 95 5 min 0,000 mm 0,0 UV-I 216 W/m 15,2 C 26,8 C 4,0 km/h (1 Bft) 0,00 %
02.07.2015 20:05 26,7 C 49 % 1019,2 hPa 0,0 l/m 0,0 km/h (0 Bft) O 80 5 min 0,000 mm 0,0 UV-I 183 W/m 15,1 C 26,7 C 0,0 km/h (0 Bft) 0,00 %
02.07.2015 20:10 26,5 C 50 % 1019,2 hPa 0,0 l/m 0,0 km/h (0 Bft) O-NO 63 5 min 0,000 mm 0,0 UV-I 152 W/m 15,2 C 26,5 C 0,0 km/h (0 Bft) 0,00 %
02.07.2015 20:15 26,2 C 50 % 1019,5 hPa 0,0 l/m 1,4 km/h (1 Bft) O-SO 102 5 min 0,000 mm 0,0 UV-I 125 W/m 14,9 C 26,2 C 4,0 km/h (1 Bft) 0,00 %
02.07.2015 20:20 26,0 C 51 % 1019,6 hPa 0,0 l/m 1,8 km/h (1 Bft) O-SO 110 5 min 0,000 mm 0,0 UV-I 100 W/m 15,1 C 26,0 C 4,0 km/h (1 Bft) 0,00 %
02.07.2015 20:25 25,7 C 52 % 1019,6 hPa 0,0 l/m 2,2 km/h (1 Bft) O-SO 108 0 min 0,000 mm 0,0 UV-I 42 W/m 15,1 C 25,7 C 4,0 km/h (1 Bft) 0,00 %
02.07.2015 20:30 25,5 C 53 % 1019,6 hPa 0,0 l/m 3,2 km/h (1 Bft) O-SO 102 0 min 0,000 mm 0,0 UV-I 30 W/m 15,2 C 25,5 C 7,9 km/h (2 Bft) 0,00 %
02.07.2015 20:35 25,2 C 55 % 1019,7 hPa 0,0 l/m 0,0 km/h (0 Bft) S 175 0 min 0,000 mm 0,0 UV-I 27 W/m 15,5 C 25,2 C 0,0 km/h (0 Bft) 0,00 %
02.07.2015 20:40 24,8 C 55 % 1020,0 hPa 0,0 l/m 0,0 km/h (0 Bft) NO 51 0 min 0,000 mm 0,0 UV-I 16 W/m 15,1 C 24,8 C 0,0 km/h (0 Bft) 0,00 %
02.07.2015 20:45 24,6 C 56 % 1020,2 hPa 0,0 l/m 1,4 km/h (1 Bft) O 83 0 min 0,000 mm 0,0 UV-I 7 W/m 15,2 C 24,6 C 4,0 km/h (1 Bft) 0,00 %
02.07.2015 20:50 24,2 C 56 % 1020,0 hPa 0,0 l/m 0,0 km/h (0 Bft) O-SO 123 0 min 0,000 mm 0,0 UV-I 3 W/m 14,9 C 24,2 C 0,0 km/h (0 Bft) 0,00 %
02.07.2015 20:55 24,1 C 56 % 1020,1 hPa 0,0 l/m 9,4 km/h (2 Bft) O-SO 114 0 min 0,000 mm 0,0 UV-I 0 W/m 14,8 C 23,3 C 11,9 km/h (2 Bft) 0,00 %
02.07.2015 21:00 24,0 C 56 % 1020,3 hPa 0,0 l/m 1,8 km/h (1 Bft) O 96 0 min 0,000 mm 0,0 UV-I 0 W/m 14,7 C 24,0 C 4,0 km/h (1 Bft) 0,00 %
02.07.2015 21:05 23,9 C 58 % 1020,3 hPa 0,0 l/m 2,2 km/h (1 Bft) O 101 0 min 0,000 mm 0,0 UV-I 0 W/m 15,1 C 23,9 C 4,0 km/h (1 Bft) 0,00 %
02.07.2015 21:10 23,9 C 59 % 1020,6 hPa 0,0 l/m 2,2 km/h (1 Bft) SO 138 0 min 0,000 mm 0,0 UV-I 0 W/m 15,4 C 23,9 C 4,0 km/h (1 Bft) 0,00 %
02.07.2015 21:15 23,7 C 59 % 1020,3 hPa 0,0 l/m 1,8 km/h (1 Bft) O 97 0 min 0,000 mm 0,0 UV-I 0 W/m 15,2 C 23,7 C 4,0 km/h (1 Bft) 0,00 %
02.07.2015 21:20 23,5 C 61 % 1020,7 hPa 0,0 l/m 5,4 km/h (1 Bft) SO 124 0 min 0,000 mm 0,0 UV-I 0 W/m 15,5 C 23,5 C 7,9 km/h (2 Bft) 0,00 %
02.07.2015 21:25 23,3 C 60 % 1020,7 hPa 0,0 l/m 0,4 km/h (0 Bft) NO 56 0 min 0,000 mm 0,0 UV-I 0 W/m 15,1 C 23,3 C 4,0 km/h (1 Bft) 0,00 %
02.07.2015 21:30 23,2 C 60 % 1020,8 hPa 0,0 l/m 4,0 km/h (1 Bft) SO 130 0 min 0,000 mm 0,0 UV-I 0 W/m 15,0 C 23,2 C 7,9 km/h (2 Bft) 0,00 %
02.07.2015 21:35 23,1 C 60 % 1020,9 hPa 0,0 l/m 0,4 km/h (0 Bft) O-SO 116 0 min 0,000 mm 0,0 UV-I 0 W/m 14,9 C 23,1 C 4,0 km/h (1 Bft) 0,00 %
02.07.2015 21:40 23,1 C 60 % 1021,1 hPa 0,0 l/m 2,9 km/h (1 Bft) O 90 0 min 0,000 mm 0,0 UV-I 0 W/m 14,9 C 23,1 C 4,0 km/h (1 Bft) 0,00 %
02.07.2015 21:45 23,0 C 60 % 1020,9 hPa 0,0 l/m 0,7 km/h (0 Bft) O-SO 107 0 min 0,000 mm 0,0 UV-I 0 W/m 14,8 C 23,0 C 4,0 km/h (1 Bft) 0,00 %
02.07.2015 21:50 22,9 C 62 % 1021,1 hPa 0,0 l/m 1,8 km/h (1 Bft) O-NO 77 0 min 0,000 mm 0,0 UV-I 0 W/m 15,2 C 22,9 C 4,0 km/h (1 Bft) 0,00 %
02.07.2015 21:55 22,8 C 62 % 1021,2 hPa 0,0 l/m 0,0 km/h (0 Bft) N 354 0 min 0,000 mm 0,0 UV-I 0 W/m 15,1 C 22,8 C 0,0 km/h (0 Bft) 0,00 %
02.07.2015 22:00 22,7 C 62 % 1021,3 hPa 0,0 l/m 0,0 km/h (0 Bft) O-NO 73 0 min 0,000 mm 0,0 UV-I 0 W/m 15,0 C 22,7 C 0,0 km/h (0 Bft) 0,00 %
02.07.2015 22:05 22,5 C 61 % 1021,3 hPa 0,0 l/m 0,0 km/h (0 Bft) NO 51 0 min 0,000 mm 0,0 UV-I 0 W/m 14,6 C 22,5 C 0,0 km/h (0 Bft) 0,00 %
02.07.2015 22:10 22,4 C 62 % 1021,1 hPa 0,0 l/m 0,4 km/h (0 Bft) SO 131 0 min 0,000 mm 0,0 UV-I 0 W/m 14,8 C 22,4 C 4,0 km/h (1 Bft) 0,00 %
02.07.2015 22:15 22,3 C 62 % 1021,2 hPa 0,0 l/m 0,0 km/h (0 Bft) O 83 0 min 0,000 mm 0,0 UV-I 0 W/m 14,7 C 22,3 C 0,0 km/h (0 Bft) 0,00 %
02.07.2015 22:20 22,2 C 62 % 1021,3 hPa 0,0 l/m 0,0 km/h (0 Bft) NO 50 0 min 0,000 mm 0,0 UV-I 0 W/m 14,6 C 22,2 C 0,0 km/h (0 Bft) 0,00 %
02.07.2015 22:25 22,1 C 62 % 1021,2 hPa 0,0 l/m 2,9 km/h (1 Bft) SO 130 0 min 0,000 mm 0,0 UV-I 0 W/m 14,5 C 22,1 C 4,0 km/h (1 Bft) 0,00 %
02.07.2015 22:30 22,1 C 62 % 1021,3 hPa 0,0 l/m 2,9 km/h (1 Bft) SO 133 0 min 0,000 mm 0,0 UV-I 0 W/m 14,5 C 22,1 C 4,0 km/h (1 Bft) 0,00 %
02.07.2015 22:35 22,1 C 63 % 1021,3 hPa 0,0 l/m 2,9 km/h (1 Bft) S-SO 147 0 min 0,000 mm 0,0 UV-I 0 W/m 14,7 C 22,1 C 4,0 km/h (1 Bft) 0,00 %
02.07.2015 22:40 22,0 C 62 % 1021,4 hPa 0,0 l/m 3,2 km/h (1 Bft) O 93 0 min 0,000 mm 0,0 UV-I 0 W/m 14,4 C 22,0 C 4,0 km/h (1 Bft) 0,00 %
02.07.2015 22:45 21,8 C 61 % 1021,2 hPa 0,0 l/m 0,4 km/h (0 Bft) O 99 0 min 0,000 mm 0,0 UV-I 0 W/m 13,9 C 21,8 C 4,0 km/h (1 Bft) 0,00 %
02.07.2015 22:50 21,7 C 62 % 1021,3 hPa 0,0 l/m 0,0 km/h (0 Bft) O-NO 62 0 min 0,000 mm 0,0 UV-I 0 W/m 14,1 C 21,7 C 0,0 km/h (0 Bft) 0,00 %
02.07.2015 22:55 21,7 C 62 % 1021,5 hPa 0,0 l/m 0,0 km/h (0 Bft) NO 46 0 min 0,000 mm 0,0 UV-I 0 W/m 14,1 C 21,7 C 0,0 km/h (0 Bft) 0,00 %
02.07.2015 23:00 21,5 C 64 % 1021,7 hPa 0,0 l/m 0,0 km/h (0 Bft) NO 49 0 min 0,000 mm 0,0 UV-I 0 W/m 14,4 C 21,5 C 0,0 km/h (0 Bft) 0,00 %
02.07.2015 23:05 21,2 C 66 % 1021,7 hPa 0,0 l/m 0,0 km/h (0 Bft) O-NO 58 0 min 0,000 mm 0,0 UV-I 0 W/m 14,6 C 21,2 C 0,0 km/h (0 Bft) 0,00 %
02.07.2015 23:10 20,9 C 66 % 1021,8 hPa 0,0 l/m 0,0 km/h (0 Bft) NO 48 0 min 0,000 mm 0,0 UV-I 0 W/m 14,3 C 20,9 C 0,0 km/h (0 Bft) 0,00 %
02.07.2015 23:15 20,6 C 67 % 1021,8 hPa 0,0 l/m 0,0 km/h (0 Bft) O-NO 63 0 min 0,000 mm 0,0 UV-I 0 W/m 14,3 C 20,6 C 0,0 km/h (0 Bft) 0,00 %
02.07.2015 23:20 20,4 C 67 % 1021,9 hPa 0,0 l/m 0,0 km/h (0 Bft) NO 48 0 min 0,000 mm 0,0 UV-I 0 W/m 14,1 C 20,4 C 0,0 km/h (0 Bft) 0,00 %
02.07.2015 23:25 20,3 C 68 % 1021,9 hPa 0,0 l/m 0,0 km/h (0 Bft) O-NO 68 0 min 0,000 mm 0,0 UV-I 0 W/m 14,2 C 20,3 C 0,0 km/h (0 Bft) 0,00 %
02.07.2015 23:30 20,2 C 67 % 1022,1 hPa 0,0 l/m 0,0 km/h (0 Bft) NO 56 0 min 0,000 mm 0,0 UV-I 0 W/m 13,9 C 20,2 C 0,0 km/h (0 Bft) 0,00 %
02.07.2015 23:35 20,2 C 67 % 1022,0 hPa 0,0 l/m 3,2 km/h (1 Bft) O-SO 105 0 min 0,000 mm 0,0 UV-I 0 W/m 13,9 C 20,2 C 4,0 km/h (1 Bft) 0,00 %
02.07.2015 23:40 20,2 C 65 % 1022,2 hPa 0,0 l/m 0,0 km/h (0 Bft) O-NO 61 0 min 0,000 mm 0,0 UV-I 0 W/m 13,4 C 20,2 C 0,0 km/h (0 Bft) 0,00 %
02.07.2015 23:45 20,2 C 66 % 1022,1 hPa 0,0 l/m 0,0 km/h (0 Bft) O-NO 59 0 min 0,000 mm 0,0 UV-I 0 W/m 13,6 C 20,2 C 0,0 km/h (0 Bft) 0,00 %
02.07.2015 23:50 20,2 C 66 % 1022,2 hPa 0,0 l/m 0,0 km/h (0 Bft) O 98 0 min 0,000 mm 0,0 UV-I 0 W/m 13,6 C 20,2 C 0,0 km/h (0 Bft) 0,00 %
02.07.2015 23:55 20,0 C 68 % 1022,1 hPa 0,0 l/m 0,0 km/h (0 Bft) NO 53 0 min 0,000 mm 0,0 UV-I 0 W/m 13,9 C 20,0 C 0,0 km/h (0 Bft) 0,00 %
_ Min-Zeit 05:05 15:30 17:35 - 00:00 - - - - - - 08:05 05:05 00:00 00:00
Minimum _ 15,4 C 41 % 1018,5 hPa - 0,0 km/h (0 Bft) - - - - - - 12,1 C 15,4 C 0,0 km/h (0 Bft) 0,00 %
_ Max-Zeit 16:45 04:25 23:40 00:00 13:40 - - 05:25 00:00 12:45 15:15 21:20 16:50 13:20 00:00
Maximum _ 28,8 C 82 % 1022,2 hPa 0,0 l/m 14,4 km/h
O-SO (3 Bft)
- - 5 min 0,000 mm 6,0 UV-I 946 W/m 15,5 C 28,8 C 19,8 km/h
NO (3 Bft)
0,00 %
Durchschnitt _ 23,0 C 58 % 1020,1 hPa #0,0 l/m 3,0 km/h (1 Bft) O - #14:55 h #0,000 mm 3,0 UV-I 619 W/m 13,7 C 23,0 C 5,0 km/h (1 Bft) 0,00 %